Time,TemperatureF,DewpointF,PressureIn,WindDirection,WindDirectionDegrees,WindSpeedMPH,WindSpeedGustMPH,Humidity,HourlyPrecipIn,Conditions,Clouds,dailyrainin,SoftwareType,DateUTC
2013-01-02 00:00:00,57.3,18.7,29.89,NNW,337,5.0,13.0,22,0.00,,,-99.99,WeatherLink 5.7,2013-01-02 06:00:00,
2013-01-02 00:30:00,57.1,18.6,29.89,North,0,3.0,12.0,22,0.00,,,-99.99,WeatherLink 5.7,2013-01-02 06:30:00,
2013-01-02 01:00:00,56.9,18.4,29.89,NNW,337,6.0,16.0,22,0.00,,,-99.99,WeatherLink 5.7,2013-01-02 07:00:00,
2013-01-02 01:30:00,56.6,18.1,29.90,NNW,337,7.0,19.0,22,0.00,,,-99.99,WeatherLink 5.7,2013-01-02 07:30:00,
2013-01-02 02:00:00,56.0,17.6,29.92,North,0,8.0,21.0,22,0.00,,,-99.99,WeatherLink 5.7,2013-01-02 08:00:00,
2013-01-02 02:30:00,55.6,16.2,29.92,North,0,8.0,17.0,21,0.00,,,-99.99,WeatherLink 5.7,2013-01-02 08:30:00,
2013-01-02 03:00:00,55.4,16.1,29.93,NNW,337,6.0,14.0,21,0.00,,,-99.99,WeatherLink 5.7,2013-01-02 09:00:00,
2013-01-02 03:30:00,54.8,15.6,29.91,North,0,6.0,14.0,21,0.00,,,-99.99,WeatherLink 5.7,2013-01-02 09:30:00,
2013-01-02 04:00:00,54.3,15.1,29.93,North,0,7.0,15.0,21,0.00,,,-99.99,WeatherLink 5.7,2013-01-02 10:00:00,
2013-01-02 04:30:00,54.2,15.1,29.94,NNW,337,6.0,16.0,21,0.00,,,-99.99,WeatherLink 5.7,2013-01-02 10:30:00,
2013-01-02 05:00:00,53.6,14.5,29.93,NNW,337,5.0,15.0,21,0.00,,,-99.99,WeatherLink 5.7,2013-01-02 11:00:00,
2013-01-02 05:30:00,53.2,15.3,29.94,NNW,337,0.0,6.0,22,0.00,,,-99.99,WeatherLink 5.7,2013-01-02 11:30:00,
2013-01-02 06:00:00,53.0,15.1,29.95,NNW,337,3.0,15.0,22,0.00,,,-99.99,WeatherLink 5.7,2013-01-02 12:00:00,
2013-01-02 06:30:00,52.7,14.9,29.96,NNW,337,5.0,13.0,22,0.00,,,-99.99,WeatherLink 5.7,2013-01-02 12:30:00,
2013-01-02 07:00:00,52.7,14.9,29.98,NNW,337,6.0,17.0,22,0.00,,,-99.99,WeatherLink 5.7,2013-01-02 13:00:00,
2013-01-02 07:30:00,52.6,13.7,29.98,NNW,337,5.0,17.0,21,0.00,,,-99.99,WeatherLink 5.7,2013-01-02 13:30:00,
2013-01-02 08:00:00,52.6,13.7,29.99,North,0,2.0,14.0,21,0.00,,,-99.99,WeatherLink 5.7,2013-01-02 14:00:00,
2013-01-02 08:30:00,52.9,14.0,30.01,NNW,337,4.0,13.0,21,0.00,,,-99.99,WeatherLink 5.7,2013-01-02 14:30:00,
2013-01-02 09:00:00,52.6,14.8,30.02,NNW,337,7.0,17.0,22,0.00,,,-99.99,WeatherLink 5.7,2013-01-02 15:00:00,
2013-01-02 09:30:00,52.4,15.6,30.02,NNW,337,8.0,15.0,23,0.00,,,-99.99,WeatherLink 5.7,2013-01-02 15:30:00,
2013-01-02 10:00:00,53.1,17.2,30.03,NNW,337,6.0,14.0,24,0.00,,,-99.99,WeatherLink 5.7,2013-01-02 16:00:00,
2013-01-02 10:30:00,52.7,17.8,30.03,NNW,337,5.0,12.0,25,0.00,,,-99.99,WeatherLink 5.7,2013-01-02 16:30:00,
2013-01-02 11:00:00,52.3,18.4,30.01,NNW,337,6.0,15.0,26,0.00,,,-99.99,WeatherLink 5.7,2013-01-02 17:00:00,
2013-01-02 11:30:00,51.5,21.0,30.00,NNW,337,9.0,17.0,30,0.00,,,-99.99,WeatherLink 5.7,2013-01-02 17:30:00,
2013-01-02 12:00:00,51.6,21.1,29.98,NNW,337,6.0,14.0,30,0.00,,,-99.99,WeatherLink 5.7,2013-01-02 18:00:00,
2013-01-02 12:30:00,51.6,23.4,29.97,NNW,337,7.0,16.0,33,0.00,,,-99.99,WeatherLink 5.7,2013-01-02 18:30:00,
2013-01-02 13:00:00,51.8,27.0,29.98,NNW,337,6.0,14.0,38,0.00,,,-99.99,WeatherLink 5.7,2013-01-02 19:00:00,
2013-01-02 13:30:00,51.5,25.4,29.96,North,0,6.0,14.0,36,0.00,,,-99.99,WeatherLink 5.7,2013-01-02 19:30:00,
2013-01-02 14:00:00,50.9,23.5,29.96,NNW,337,7.0,16.0,34,0.00,,,-99.99,WeatherLink 5.7,2013-01-02 20:00:00,
2013-01-02 14:30:00,51.0,24.3,29.97,NNW,337,4.0,12.0,35,0.00,,,-99.99,WeatherLink 5.7,2013-01-02 20:30:00,
2013-01-02 15:00:00,51.3,25.2,29.97,NNW,337,4.0,12.0,36,0.00,,,-99.99,WeatherLink 5.7,2013-01-02 21:00:00,
2013-01-02 15:30:00,50.7,24.7,29.99,NW,315,6.0,14.0,36,0.00,,,-99.99,WeatherLink 5.7,2013-01-02 21:30:00,
2013-01-02 16:00:00,50.6,22.5,30.01,NNW,337,6.0,14.0,33,0.00,,,-99.99,WeatherLink 5.7,2013-01-02 22:00:00,
2013-01-02 16:30:00,50.3,20.0,30.03,NW,315,6.0,14.0,30,0.00,,,-99.99,WeatherLink 5.7,2013-01-02 22:30:00,
2013-01-02 17:00:00,49.9,18.0,30.03,NW,315,6.0,14.0,28,0.00,,,-99.99,WeatherLink 5.7,2013-01-02 23:00:00,
2013-01-02 17:30:00,49.6,16.9,30.02,NNW,337,6.0,14.0,27,0.00,,,-99.99,WeatherLink 5.7,2013-01-02 23:30:00,
2013-01-02 18:00:00,49.4,15.9,30.02,North,0,6.0,13.0,26,0.00,,,-99.99,WeatherLink 5.7,2013-01-03 00:00:00,
2013-01-02 18:30:00,49.2,15.7,30.03,NNW,337,6.0,14.0,26,0.00,,,-99.99,WeatherLink 5.7,2013-01-03 00:30:00,
2013-01-02 19:00:00,49.1,15.6,30.02,NNW,337,7.0,15.0,26,0.00,,,-99.99,WeatherLink 5.7,2013-01-03 01:00:00,
2013-01-02 19:30:00,49.0,14.7,30.03,North,0,6.0,15.0,25,0.00,,,-99.99,WeatherLink 5.7,2013-01-03 01:30:00,
2013-01-02 20:00:00,48.8,14.5,30.05,NNW,337,6.0,15.0,25,0.00,,,-99.99,WeatherLink 5.7,2013-01-03 02:00:00,
2013-01-02 20:30:00,48.7,14.4,30.05,NNW,337,6.0,13.0,25,0.00,,,-99.99,WeatherLink 5.7,2013-01-03 02:30:00,
2013-01-02 21:00:00,48.6,13.4,30.06,NNW,337,5.0,13.0,24,0.00,,,-99.99,WeatherLink 5.7,2013-01-03 03:00:00,
2013-01-02 21:30:00,48.4,13.2,30.05,North,0,4.0,12.0,24,0.00,,,-99.99,WeatherLink 5.7,2013-01-03 03:30:00,
2013-01-02 22:00:00,47.8,11.7,30.06,NNW,337,5.0,13.0,23,0.00,,,-99.99,WeatherLink 5.7,2013-01-03 04:00:00,
2013-01-02 22:30:00,47.2,11.2,30.05,NNW,337,7.0,15.0,23,0.01,,,-99.99,WeatherLink 5.7,2013-01-03 04:30:00,
2013-01-02 23:00:00,46.7,11.8,30.06,North,0,6.0,14.0,24,0.02,,,-99.99,WeatherLink 5.7,2013-01-03 05:00:00,
2013-01-02 23:30:00,46.2,11.3,30.07,NNW,337,6.0,15.0,24,0.03,,,-99.99,WeatherLink 5.7,2013-01-03 05:30:00,